• In Hungary
  • List of Countries
  • For 7 days
  • Water Temperature
  • Satellite Maps
  • Weather Map
  • News
  • Weather Widgets
  • user-avatar
    Login

    Hourly Weather Prasat Preah Khan

    Today, 26 February, Monday

    Time Temperature Precipitation Wind Pressure Humidity
    00:00 +31°C° 0 mm 1 mps 757 mmHg 52%
    01:00 +30°C° 0 mm 1 mps 757 mmHg 56%
    02:00 +30°C° 0 mm 1 mps 757 mmHg 58%
    03:00 +30°C° 0 mm 1 mps 757 mmHg 59%
    04:00 +29°C° 0 mm 1 mps 757 mmHg 61%
    05:00 +29°C° 0 mm 2 mps 757 mmHg 61%
    06:00 +28°C° 0 mm 2 mps 757 mmHg 61%
    07:00 +28°C° 0 mm 3 mps 758 mmHg 62%
    08:00 +29°C° 0 mm 3 mps 758 mmHg 55%
    09:00 +32°C° 0 mm 4 mps 758 mmHg 48%
    10:00 +34°C° 0 mm 4 mps 758 mmHg 40%
    11:00 +35°C° 0 mm 3 mps 758 mmHg 37%
    12:00 +36°C° 0 mm 3 mps 757 mmHg 34%
    13:00 +38°C° 0 mm 2 mps 756 mmHg 30%
    14:00 +38°C° 0 mm 2 mps 756 mmHg 29%
    15:00 +39°C° 0 mm 2 mps 755 mmHg 28%
    16:00 +39°C° 0 mm 2 mps 755 mmHg 28%
    17:00 +37°C° 0 mm 2 mps 755 mmHg 31%
    18:00 +35°C° 0 mm 2 mps 755 mmHg 35%
    19:00 +34°C° 0 mm 2 mps 755 mmHg 38%
    20:00 +32°C° 0 mm 2 mps 755 mmHg 39%
    21:00 +32°C° 0 mm 2 mps 756 mmHg 41%
    22:00 +32°C° 0 mm 1 mps 756 mmHg 42%
    23:00 +31°C° 0 mm 2 mps 756 mmHg 47%

    Tomorrow, 27 February, Tuesday

    Time Temperature Precipitation Wind Pressure Humidity
    00:00 +31°C° 0 mm 2 mps 757 mmHg 52%
    01:00 +30°C° 0 mm 2 mps 757 mmHg 57%
    02:00 +29°C° 0.1 mm 2 mps 757 mmHg 60%
    03:00 +29°C° 0.1 mm 2 mps 756 mmHg 64%
    04:00 +28°C° 0.1 mm 2 mps 756 mmHg 67%
    05:00 +28°C° 0.3 mm 2 mps 757 mmHg 67%
    06:00 +28°C° 0.3 mm 2 mps 757 mmHg 67%
    07:00 +28°C° 0.3 mm 2 mps 757 mmHg 67%
    08:00 +29°C° 0 mm 2 mps 758 mmHg 60%
    09:00 +31°C° 0 mm 2 mps 758 mmHg 54%
    10:00 +34°C° 0 mm 2 mps 758 mmHg 47%
    11:00 +36°C° 0 mm 2 mps 757 mmHg 43%
    12:00 +36°C° 0 mm 1 mps 757 mmHg 39%
    13:00 +39°C° 0 mm 1 mps 756 mmHg 34%
    14:00 +39°C° 0 mm 1 mps 755 mmHg 34%
    15:00 +39°C° 0 mm 1 mps 754 mmHg 33%
    16:00 +39°C° 0 mm 1 mps 754 mmHg 32%
    17:00 +36°C° 0 mm 1 mps 754 mmHg 35%
    18:00 +36°C° 0 mm 2 mps 754 mmHg 39%
    19:00 +34°C° 0 mm 2 mps 755 mmHg 42%
    20:00 +34°C° 0 mm 2 mps 755 mmHg 45%
    21:00 +32°C° 0 mm 2 mps 756 mmHg 48%
    22:00 +31°C° 0 mm 2 mps 756 mmHg 51%
    23:00 +31°C° 0 mm 2 mps 756 mmHg 56%

    Day after tomorrow, 28 February, Wednesday

    Time Temperature Precipitation Wind Pressure Humidity
    00:00 +30°C° 0 mm 2 mps 756 mmHg 61%
    01:00 +30°C° 0 mm 2 mps 756 mmHg 66%
    02:00 +29°C° 0 mm 2 mps 755 mmHg 69%
    03:00 +29°C° 0 mm 2 mps 755 mmHg 71%
    04:00 +28°C° 0 mm 2 mps 755 mmHg 73%
    05:00 +28°C° 0 mm 1 mps 755 mmHg 74%
    06:00 +28°C° 0 mm 1 mps 756 mmHg 75%
    07:00 +28°C° 0 mm 1 mps 756 mmHg 75%
    08:00 +31°C° 0 mm 1 mps 757 mmHg 66%
    09:00 +33°C° 0 mm 1 mps 757 mmHg 58%
    10:00 +35°C° 0 mm 1 mps 758 mmHg 49%
    11:00 +37°C° 0 mm 1 mps 757 mmHg 44%
    12:00 +40°C° 0 mm 1 mps 756 mmHg 38%
    13:00 +41°C° 0 mm 1 mps 755 mmHg 33%
    14:00 +41°C° 0 mm 1 mps 754 mmHg 33%
    15:00 +41°C° 0 mm 1 mps 754 mmHg 32%
    16:00 +40°C° 0 mm 1 mps 753 mmHg 32%
    17:00 +39°C° 0 mm 1 mps 753 mmHg 36%
    18:00 +36°C° 0 mm 1 mps 754 mmHg 39%
    19:00 +36°C° 0 mm 2 mps 754 mmHg 43%
    20:00 +35°C° 0 mm 2 mps 755 mmHg 47%
    21:00 +34°C° 0 mm 2 mps 755 mmHg 51%
    22:00 +32°C° 0 mm 2 mps 756 mmHg 55%
    23:00 +32°C° 0 mm 2 mps 755 mmHg 58%

    1 March, Thursday

    Time Temperature Precipitation Wind Pressure Humidity
    00:00 +31°C° 0 mm 2 mps 755 mmHg 62%
    01:00 +31°C° 0 mm 2 mps 755 mmHg 65%
    02:00 +30°C° 0 mm 2 mps 755 mmHg 67%
    03:00 +30°C° 0 mm 2 mps 755 mmHg 69%
    04:00 +29°C° 0 mm 1 mps 754 mmHg 71%
    05:00 +29°C° 0.1 mm 1 mps 755 mmHg 72%
    06:00 +29°C° 0.1 mm 1 mps 755 mmHg 73%
    07:00 +29°C° 0.1 mm 1 mps 756 mmHg 73%
    08:00 +31°C° 0 mm 2 mps 756 mmHg 65%
    09:00 +34°C° 0 mm 2 mps 757 mmHg 57%
    10:00 +36°C° 0 mm 2 mps 757 mmHg 49%
    11:00 +38°C° 0 mm 2 mps 756 mmHg 45%
    12:00 +39°C° 0 mm 1 mps 755 mmHg 41%
    13:00 +40°C° 0 mm 1 mps 755 mmHg 37%
    14:00 +40°C° 0 mm 1 mps 754 mmHg 37%
    15:00 +39°C° 0 mm 1 mps 753 mmHg 37%
    16:00 +39°C° 0 mm 1 mps 753 mmHg 37%
    17:00 +37°C° 0 mm 1 mps 753 mmHg 40%
    18:00 +36°C° 0 mm 1 mps 754 mmHg 43%
    19:00 +35°C° 0 mm 1 mps 754 mmHg 46%
    20:00 +35°C° 0 mm 2 mps 755 mmHg 49%
    21:00 +34°C° 0 mm 2 mps 755 mmHg 52%
    22:00 +32°C° 0 mm 2 mps 756 mmHg 55%
    23:00 +32°C° 0 mm 2 mps 756 mmHg 58%

    2 March, Friday

    Time Temperature Precipitation Wind Pressure Humidity
    00:00 +31°C° 0 mm 2 mps 756 mmHg 61%
    01:00 +31°C° 0 mm 2 mps 755 mmHg 65%
    02:00 +30°C° 0.2 mm 2 mps 755 mmHg 68%
    03:00 +29°C° 0.2 mm 2 mps 755 mmHg 71%
    04:00 +29°C° 0.2 mm 2 mps 754 mmHg 75%
    05:00 +29°C° 0 mm 1 mps 755 mmHg 75%
    06:00 +29°C° 0 mm 1 mps 756 mmHg 75%
    07:00 +29°C° 0 mm 1 mps 756 mmHg 76%
    08:00 +31°C° 0 mm 1 mps 756 mmHg 66%
    09:00 +33°C° 0 mm 1 mps 757 mmHg 57%
    10:00 +36°C° 0 mm 1 mps 757 mmHg 48%
    11:00 +37°C° 0 mm 1 mps 756 mmHg 44%
    12:00 +39°C° 0 mm 1 mps 755 mmHg 40%
    13:00 +41°C° 0 mm 1 mps 754 mmHg 36%
    14:00 +40°C° 0 mm 1 mps 754 mmHg 36%
    15:00 +40°C° 0 mm 1 mps 753 mmHg 36%
    16:00 +39°C° 0 mm 1 mps 753 mmHg 36%
    17:00 +37°C° 0 mm 1 mps 753 mmHg 39%
    18:00 +36°C° 0 mm 1 mps 753 mmHg 43%
    19:00 +36°C° 0 mm 2 mps 754 mmHg 46%
    20:00 +35°C° 0.1 mm 2 mps 754 mmHg 50%
    21:00 +34°C° 0.1 mm 2 mps 755 mmHg 54%
    22:00 +33°C° 0.1 mm 3 mps 755 mmHg 58%
    23:00 +32°C° 0.1 mm 2 mps 755 mmHg 61%

    3 March, Saturday

    Time Temperature Precipitation Wind Pressure Humidity
    00:00 +31°C° 0.1 mm 2 mps 755 mmHg 64%
    01:00 +30°C° 0.1 mm 2 mps 755 mmHg 68%
    02:00 +30°C° 0.1 mm 2 mps 755 mmHg 70%
    03:00 +29°C° 0.1 mm 1 mps 754 mmHg 73%
    04:00 +29°C° 0.1 mm 1 mps 754 mmHg 75%
    05:00 +29°C° 0 mm 1 mps 755 mmHg 75%
    06:00 +29°C° 0 mm 1 mps 755 mmHg 76%
    07:00 +27°C° 0 mm 0 mps 756 mmHg 76%
    08:00 +31°C° 0 mm 1 mps 756 mmHg 67%
    09:00 +33°C° 0 mm 1 mps 756 mmHg 58%
    10:00 +36°C° 0 mm 1 mps 756 mmHg 49%
    11:00 +37°C° 0 mm 1 mps 755 mmHg 45%
    12:00 +40°C° 0 mm 1 mps 755 mmHg 40%
    13:00 +41°C° 0 mm 1 mps 754 mmHg 36%
    14:00 +41°C° 0 mm 1 mps 753 mmHg 36%
    15:00 +40°C° 0 mm 1 mps 753 mmHg 36%
    16:00 +40°C° 0 mm 1 mps 752 mmHg 36%
    17:00 +38°C° 0 mm 2 mps 753 mmHg 40%
    18:00 +37°C° 0 mm 2 mps 753 mmHg 44%
    19:00 +36°C° 0 mm 2 mps 753 mmHg 48%
    20:00 +35°C° 0 mm 2 mps 754 mmHg 52%
    21:00 +34°C° 0 mm 3 mps 754 mmHg 56%
    22:00 +33°C° 0 mm 3 mps 755 mmHg 61%
    23:00 +31°C° 0.2 mm 3 mps 755 mmHg 64%
    Show more